Weather History for Farmington, MO

Change the Weather History Date:

Saturday, October 12, 2013

  Actual Average Record
Temperature  
Mean Temperature 64 °F -  
Max Temperature 73 °F 67 °F 82 °F (1999)
Min Temperature 55 °F 44 °F 33 °F (2000)
Degree Days  
Heating Degree Days 1    
Growing Degree Days 14 (Base 50)    
Moisture  
Dew Point 57 °F    
Average Humidity 79    
Maximum Humidity 94    
Minimum Humidity 59    
Precipitation  
Precipitation 0.16 in - - ()
Sea Level Pressure  
Sea Level Pressure 30.08 in    
Wind  
Wind Speed 2 mph (WNW)    
Max Wind Speed 8 mph    
Max Gust Speed -    
Visibility 9 miles    
Events Thunderstorm    
Averages and records for this station are not official NWS values.
T = Trace of Precipitation, MM = Missing Value Source: NWS Daily Summary

Daily Weather History Graph

Daily Weather History Graph

Search for Another Location

Airport:

Trip Planner

Search our weather history database for the weather conditions in past years. The results will help you decide how hot, cold, wet, or windy it might be!

Date:

Astronomy

Oct. 12, 2013 Rise Set
Actual Time 7:07 AM CDT 6:28 PM CDT
Civil Twilight 6:41 AM CDT 6:54 PM CDT
Nautical Twilight 6:10 AM CDT 7:24 PM CDT
Astronomical Twilight 5:40 AM CDT 7:55 PM CDT
Moon 2:31 PM CDT (10/12) 12:17 AM CDT (10/12)
Length of Visible Light 12h 13m
Length of Day
11h 20m
First Quarter, 59% of the Moon is Illuminated
Oct 12
First Quarter
Oct 18
Full
Oct 26
Last Quarter
Nov 3
New
Nov 9
First Quarter

Hourly Weather History & Observations

Time (CDT) Temp. Dew Point Humidity Pressure Visibility Wind Dir Wind Speed Gust Speed Precip Events Conditions
12:15 AM 57.2 °F 53.6 °F 88% 30.01 in 9.0 mi Calm Calm - N/A   Clear
12:35 AM 57.2 °F 55.4 °F 94% 30.01 in 8.0 mi South 4.6 mph - N/A   Clear
12:55 AM 57.2 °F 53.6 °F 88% 30.01 in 10.0 mi Calm Calm - N/A   Clear
1:15 AM 57.2 °F 55.4 °F 94% 30.00 in 10.0 mi SE 4.6 mph - N/A   Clear
1:35 AM 59.0 °F 55.4 °F 88% 30.00 in 10.0 mi SSE 4.6 mph - N/A   Clear
1:55 AM 57.2 °F 55.4 °F 94% 30.00 in 10.0 mi South 4.6 mph - N/A   Clear
2:15 AM 57.2 °F 55.4 °F 94% 30.01 in 10.0 mi Calm Calm - N/A   Clear
2:35 AM 59.0 °F 55.4 °F 88% 30.01 in 10.0 mi Calm Calm - N/A   Clear
2:55 AM 57.2 °F 55.4 °F 94% 30.00 in 10.0 mi Calm Calm - N/A   Clear
3:15 AM 57.2 °F 55.4 °F 94% 30.00 in 10.0 mi Calm Calm - N/A   Mostly Cloudy
3:35 AM 59.0 °F 55.4 °F 88% 30.00 in 10.0 mi South 3.5 mph - N/A   Scattered Clouds
3:55 AM 59.0 °F 55.4 °F 88% 30.00 in 10.0 mi Calm Calm - N/A   Clear
4:15 AM 59.0 °F 55.4 °F 88% 30.00 in 10.0 mi Calm Calm - N/A   Scattered Clouds
4:35 AM 59.0 °F 55.4 °F 88% 30.00 in 10.0 mi Calm Calm - N/A   Mostly Cloudy
4:55 AM 60.8 °F 55.4 °F 82% 30.00 in 10.0 mi Calm Calm - N/A   Overcast
5:15 AM 60.8 °F 55.4 °F 82% 30.00 in 10.0 mi Calm Calm - N/A   Overcast
5:35 AM 60.8 °F 55.4 °F 82% 30.01 in 10.0 mi Calm Calm - N/A   Mostly Cloudy
5:55 AM 60.8 °F 55.4 °F 82% 30.01 in 10.0 mi Calm Calm - N/A   Mostly Cloudy
6:15 AM 60.8 °F 57.2 °F 88% 30.01 in 10.0 mi Calm Calm - N/A   Mostly Cloudy
6:35 AM 60.8 °F 57.2 °F 88% 30.02 in 10.0 mi Calm Calm - N/A   Overcast
6:55 AM 60.8 °F 57.2 °F 88% 30.02 in 10.0 mi Calm Calm - N/A   Overcast
7:15 AM 62.6 °F 57.2 °F 82% 30.02 in 10.0 mi Calm Calm - N/A   Overcast
7:35 AM 62.6 °F 57.2 °F 82% 30.03 in 10.0 mi Calm Calm - N/A Thunderstorm Overcast
7:55 AM 62.6 °F 57.2 °F 82% 30.06 in 4.0 mi WSW 5.8 mph - 0.16 in Thunderstorm Thunderstorm
9:15 AM - - N/A% - - North - - N/A   Unknown
9:35 AM 62.6 °F 60.8 °F 94% 30.07 in 2.5 mi SSE 6.9 mph - N/A   Unknown
9:55 AM 62.6 °F 60.8 °F 94% 30.09 in 3.0 mi South 6.9 mph - N/A   Partly Cloudy
10:15 AM 62.6 °F 60.8 °F 94% 30.09 in 3.0 mi South 6.9 mph - N/A   Clear
10:35 AM 64.4 °F 62.6 °F 94% 30.09 in 3.0 mi SSW 4.6 mph - N/A   Mostly Cloudy
10:55 AM 64.4 °F 62.6 °F 94% 30.09 in 5.0 mi South 5.8 mph - N/A   Partly Cloudy
11:15 AM 64.4 °F 62.6 °F 94% 30.08 in 5.0 mi Calm Calm - N/A   Scattered Clouds
11:35 AM 64.4 °F 62.6 °F 94% 30.08 in 5.0 mi Calm Calm - N/A   Scattered Clouds
11:55 AM 64.4 °F 62.6 °F 94% 30.08 in 6.0 mi Calm Calm - N/A   Partly Cloudy
12:15 PM 66.2 °F 62.6 °F 88% 30.09 in 8.0 mi Calm Calm - N/A   Partly Cloudy
12:35 PM 66.2 °F 62.6 °F 88% 30.09 in 8.0 mi Calm Calm - N/A   Partly Cloudy
12:55 PM 68.0 °F 62.6 °F 83% 30.09 in 10.0 mi Calm Calm - N/A   Clear
1:15 PM 69.8 °F 62.6 °F 78% 30.09 in 10.0 mi NW 3.5 mph - N/A   Clear
1:35 PM 71.6 °F 62.6 °F 73% 30.09 in 10.0 mi NW 5.8 mph - N/A   Partly Cloudy
1:55 PM 73.4 °F 60.8 °F 65% 30.09 in 10.0 mi WNW 5.8 mph - N/A   Clear
2:15 PM 73.4 °F 60.8 °F 65% 30.09 in 10.0 mi WNW 6.9 mph - N/A   Scattered Clouds
2:35 PM 73.4 °F 60.8 °F 65% 30.09 in 10.0 mi WNW 5.8 mph - N/A   Scattered Clouds
2:55 PM 73.4 °F 59.0 °F 61% 30.09 in 10.0 mi NNW 5.8 mph - N/A   Partly Cloudy
3:15 PM 73.4 °F 60.8 °F 65% 30.09 in 10.0 mi NNW 5.8 mph - N/A   Clear
3:35 PM 73.4 °F 59.0 °F 61% 30.09 in 10.0 mi WNW 5.8 mph - N/A   Clear
3:55 PM 73.4 °F 60.8 °F 65% 30.09 in 10.0 mi NW 3.5 mph - N/A   Scattered Clouds
4:15 PM 73.4 °F 60.8 °F 65% 30.09 in 10.0 mi WNW 6.9 mph - N/A   Partly Cloudy
4:35 PM 73.4 °F 59.0 °F 61% 30.09 in 10.0 mi Calm Calm - N/A   Clear
4:55 PM 73.4 °F 60.8 °F 65% 30.09 in 6.0 mi NNW 8.1 mph - N/A   Scattered Clouds
5:15 PM 73.4 °F 60.8 °F 65% 30.10 in 10.0 mi NW 6.9 mph - N/A   Partly Cloudy
5:35 PM 73.4 °F 59.0 °F 61% 30.10 in 10.0 mi NW 3.5 mph - N/A   Clear
5:55 PM 71.6 °F 59.0 °F 64% 30.10 in 10.0 mi NW 3.5 mph - N/A   Clear
6:15 PM 71.6 °F 59.0 °F 64% 30.10 in 10.0 mi Calm Calm - N/A   Clear
6:35 PM 69.8 °F 59.0 °F 68% 30.11 in 10.0 mi Calm Calm - N/A   Clear
6:55 PM 66.2 °F 59.0 °F 78% 30.12 in 10.0 mi Calm Calm - N/A   Clear
7:15 PM 64.4 °F 59.0 °F 83% 30.13 in 10.0 mi NNW 4.6 mph - N/A   Scattered Clouds
7:35 PM 66.2 °F 57.2 °F 73% 30.14 in 10.0 mi NW 4.6 mph - N/A   Partly Cloudy
7:55 PM 64.4 °F 57.2 °F 77% 30.14 in 10.0 mi NNW 3.5 mph - N/A   Clear
8:15 PM 64.4 °F 57.2 °F 77% 30.15 in 10.0 mi NW 3.5 mph - N/A   Clear
8:35 PM 64.4 °F 55.4 °F 73% 30.16 in 10.0 mi NW 3.5 mph - N/A   Clear
8:55 PM 64.4 °F 55.4 °F 73% 30.17 in 10.0 mi NNW 5.8 mph - N/A   Clear
9:15 PM 64.4 °F 51.8 °F 64% 30.18 in 10.0 mi NNW 8.1 mph - N/A   Clear
9:35 PM 62.6 °F 50.0 °F 63% 30.18 in 10.0 mi NNW 4.6 mph - N/A   Clear
9:55 PM 62.6 °F 48.2 °F 59% 30.19 in 10.0 mi North 5.8 mph - N/A   Clear
10:15 PM 62.6 °F 48.2 °F 59% 30.20 in 10.0 mi NNW 3.5 mph - N/A   Clear
10:35 PM 60.8 °F 48.2 °F 63% 30.20 in 10.0 mi North 3.5 mph - N/A   Clear
10:55 PM 59.0 °F 48.2 °F 67% 30.21 in 10.0 mi Calm Calm - N/A   Clear
11:15 PM 57.2 °F 48.2 °F 72% 30.21 in 10.0 mi Calm Calm - N/A   Clear
11:35 PM 55.4 °F 50.0 °F 82% 30.22 in 10.0 mi Calm Calm - N/A   Clear
11:55 PM 55.4 °F 48.2 °F 77% 30.22 in 10.0 mi Calm Calm - N/A   Clear